Location: Godiavel Galaoual
(15.2485°N, 12.6604°W)
Time: 21:52:10
(UTC+00:00)

BEESAT - Pass Details

Date: 02 August 2021
Orbit: 699 x 708 km, 98.6° (Epoch: 25 September)

Event Time Altitude Azimuth Distance (km) Brightness Sun altitude
Rises 20:27:01 0° 360° (N) 3,095 ? -15.9°
Reaches altitude 10° 20:29:24 10° 353° (N) 2,176 ? -16.4°
Maximum altitude 20:33:49 39° 285° (WNW) 1,052 ? -17.4°
Drops below altitude 10° 20:38:14 10° 216° (SW) 2,170 ? -18.3°
Sets 20:40:36 0° 209° (SSW) 3,086 ? -18.8°
